Regional Weather Roundup
Issued by NWS Little Rock, AR

Home | Current Version | Previous Version | Text Only | Print | Product List | Glossary On
Versions: 1 2 3 4 5 6 7 8 9 10 11 12 13 14 15 16 17 18 19 20 21 22 23 24 25 26 27 28 29 30 31 32 33 34 35 36 37 38 39 40 41 42 43 44 45 46 47 48 49 50
000
ASUS44 KLZK 311005
RWRLZK

WEATHER ROUNDUP FOR ARKANSAS
NATIONAL WEATHER SERVICE LITTLE ROCK AR
500 AM CDT FRI JUL 31 2015

NOTE: "FAIR" INDICATES FEW OR NO CLOUDS BELOW 12,000 FEET WITH NO
SIGNIFICANT WEATHER AND/OR OBSTRUCTIONS TO VISIBILITY.

ARZ001-003-010-029-311100-
NORTHWEST ARKANSAS

CITY           SKY/WX    TMP DP  RH WIND       PRES   REMARKS
FAYETTEVILLE   PTCLDY    65  65 100 CALM      30.16S
FORT SMITH     PTCLDY    74  66  76 E6        30.11R
HARRISON       CLEAR     64  63  96 W3        30.17R
BENTONVILLE    MOCLDY    70  63  78 SE3       30.16S
ROGERS         MOCLDY    71  67  87 E7        30.16F
SILOAM SPGS    MOCLDY    70  61  73 CALM      30.14S
HIGHFILL       MOCLDY    71  67  87 CALM      30.16
$$

ARZ004-005-016-311100-
NORTH CENTRAL ARKANSAS

CITY           SKY/WX    TMP DP  RH WIND       PRES   REMARKS
BATESVILLE     CLEAR     66  64  94 NW3       30.12S
FLIPPIN        CLEAR     64  61  88 CALM      30.13S
MTN HOME       CLEAR     67  64  90 CALM      30.15R
$$

ARZ040-041-311100-
WEST CENTRAL ARKANSAS

CITY           SKY/WX    TMP DP  RH WIND       PRES   REMARKS
MENA           CLEAR     68  68 100 CALM      30.14S
MOUNT IDA      FOG       67  67 100 CALM      30.10F VSB 1/4
$$

ARZ009-017-025-026-028-311100-
NORTHEAST ARKANSAS

CITY           SKY/WX    TMP DP  RH WIND       PRES   REMARKS
JONESBORO      CLEAR     71  65  81 N5        30.10R
NEWPORT        CLEAR     68  66  93 N3        30.11S
WALNUT RIDGE   CLEAR     68  63  83 NW3       30.10S
BLYTHEVILLE    CLEAR     67  66  97 N5        30.09R
$$

ARZ022-023-033-042-044-311100-
CENTRAL ARKANSAS

CITY           SKY/WX    TMP DP  RH WIND       PRES   REMARKS
LITTLE ROCK    MOCLDY    74  62  66 N6        30.10R
N LITTLE ROCK    N/A     74  63  69 N6        30.10R
SEARCY         CLEAR     70  64  81 N3        30.11S
HOT SPRINGS    CLEAR     70  62  76 CALM      30.11S
RUSSELLVILLE   CLEAR     68  65  90 CALM      30.12R
CLINTON        FAIR      64  64 100 CALM      30.14S
$$

ARZ036-311100-
EAST ARKANSAS

CITY           SKY/WX    TMP DP  RH WIND       PRES   REMARKS
WEST MEMPHIS   CLEAR     68  67  96 NW5       30.08R
$$

ARZ050-053-066-070-073-311100-
SOUTHWEST ARKANSAS

CITY           SKY/WX    TMP DP  RH WIND       PRES   REMARKS
ARKADELPHIA    FAIR      68  65  90 CALM      30.09R
CAMDEN         PTCLDY    64  63  94 CALM      30.07F
TEXARKANA      PTCLDY    72  66  81 NE5       30.08F
EL DORADO      PTCLDY    70  64  81 N3        30.08S
DE QUEEN       FOG       70  70 100 CALM      30.08S VSB 1/4
$$

ARZ056-057-069-311100-
SOUTHEAST ARKANSAS

CITY           SKY/WX    TMP DP  RH WIND       PRES   REMARKS
PINE BLUFF     CLEAR     70  65  84 N7        30.08S
STUTTGART      CLEAR     70  63  78 MISG      30.07F
MONTICELLO     CLEAR     70  66  87 NE3       30.06R

$$




USA.gov is the U.S. government's official web portal to all federal, state and local government web resources and services.